This demonstration page uses our WeatherBlox Daily Observations layout. Learn more.

Left ArrowRight Arrow

34.16533, -84.80231

Hourly Observations for September 29, 2022

Temp ( °F °C ) Dew Point ( °F °C ) Humidity (%) Winds ( mph kmh ) Pressure ( in mb ) Visibility ( mi km ) Precip ( " mm )
12:15 am 00:15 Clear 54 12 41 5 62 62 Calm 30.24 1024 10 16 0.00 0.00
12:35 am 00:35 Clear 54 12 43 6 67 67 Calm 30.24 1024 10 16 0.00 0.00
12:55 am 00:55 Mostly Clear 54 12 41 5 62 62 Calm 30.23 1024 10 16 0.00 0.00
1:15 am 01:15 Clear 54 12 43 6 67 67 VRB 5 7 30.23 1024 10 16 0.00 0.00
1:35 am 01:35 Clear 52 11 41 5 66 66 N 5 7 30.24 1024 10 16 0.00 0.00
1:55 am 01:55 Mostly Clear 52 11 41 5 66 66 NNE 6 9 30.24 1024 10 16 0.00 0.00
2:15 am 02:15 Mostly Clear 52 11 43 6 71 71 Calm 30.24 1024 10 16 0.00 0.00
2:35 am 02:35 Clear 52 11 43 6 71 71 Calm 30.23 1024 10 16 0.00 0.00
2:55 am 02:55 Clear 50 10 43 6 76 76 NNE 6 9 30.23 1024 10 16 0.00 0.00
3:15 am 03:15 Clear 50 10 43 6 76 76 Calm 30.22 1023 10 16 0.00 0.00
3:35 am 03:35 Clear 50 10 43 6 76 76 VRB 5 7 30.22 1023 10 16 0.00 0.00
3:55 am 03:55 Clear 48 9 43 6 81 81 NNE 5 7 30.22 1023 10 16 0.00 0.00
4:15 am 04:15 Clear 48 9 43 6 81 81 NNE 7 11 30.22 1023 10 16 0.00 0.00
4:35 am 04:35 Clear 48 9 43 6 81 81 N 5 7 30.23 1024 10 16 0.00 0.00
4:55 am 04:55 Clear 48 9 43 6 81 81 NNE 7 11 30.22 1023 10 16 0.00 0.00
5:15 am 05:15 Clear 48 9 43 6 81 81 Calm 30.22 1023 10 16 0.00 0.00
5:35 am 05:35 Clear 48 9 43 6 81 81 NNE 7 11 30.22 1023 10 16 0.00 0.00
5:55 am 05:55 Clear 48 9 43 6 81 81 VRB 6 9 30.22 1023 10 16 0.00 0.00
6:15 am 06:15 Clear 46 8 43 6 87 87 N 5 7 30.23 1024 10 16 0.00 0.00
6:35 am 06:35 Clear 46 8 43 6 87 87 VRB 5 7 30.23 1024 10 16 0.00 0.00
6:55 am 06:55 Clear 46 8 43 6 87 87 N 6 9 30.23 1024 10 16 0.00 0.00
7:15 am 07:15 Clear 46 8 41 5 81 81 N 5 7 30.24 1024 10 16 0.00 0.00
7:35 am 07:35 Sunny 46 8 41 5 81 81 Calm 30.24 1024 10 16 0.00 0.00
7:55 am 07:55 Sunny 46 8 43 6 87 87 Calm 30.24 1024 10 16 0.00 0.00
8:15 am 08:15 Sunny 46 8 43 6 87 87 VRB 7 11 30.24 1024 10 16 0.00 0.00
8:35 am 08:35 Sunny 48 9 43 6 81 81 N 7 11 30.24 1024 10 16 0.00 0.00
8:55 am 08:55 Sunny 50 10 43 6 76 76 NNE 7 11 30.24 1024 10 16 0.00 0.00
9:15 am 09:15 Sunny 50 10 43 6 76 76 N 7 11 30.24 1024 10 16 0.00 0.00
9:35 am 09:35 Sunny 54 12 43 6 67 67 NNE 7 11 30.23 1024 10 16 0.00 0.00
9:55 am 09:55 Sunny 55 13 43 6 62 62 NNE 7 11 30.23 1024 10 16 0.00 0.00
10:15 am 10:15 Sunny 57 14 43 6 58 58 NNE 7 11 30.23 1024 10 16 0.00 0.00
10:35 am 10:35 Sunny 57 14 43 6 58 58 VRB 7 11 30.23 1024 10 16 0.00 0.00
10:55 am 10:55 Sunny 59 15 43 6 55 55 NNE 8 13 30.23 1024 10 16 0.00 0.00
11:15 am 11:15 Sunny 61 16 43 6 51 51 NNE 7 11 30.21 1023 10 16 0.00 0.00
11:35 am 11:35 Sunny 63 17 43 6 48 48 N 9 15 30.21 1023 10 16 0.00 0.00
11:55 am 11:55 Sunny 64 18 43 6 45 45 VRB 7 11 30.21 1023 10 16 0.00 0.00
12:15 pm 12:15 Sunny 64 18 43 6 45 45 N 9 15 30.21 1023 10 16 0.00 0.00
12:35 pm 12:35 Sunny 66 19 43 6 43 43 N 8 13 30.19 1023 10 16 0.00 0.00
12:55 pm 12:55 Sunny 66 19 43 6 43 43 VRB 7 11 30.19 1022 10 16 0.00 0.00
1:15 pm 13:15 Sunny 68 20 43 6 40 40 NNE 9 15 30.17 1022 10 16 0.00 0.00
1:35 pm 13:35 Sunny 68 20 43 6 40 40 VRB 7 11 30.15 1021 10 16 0.00 0.00
1:55 pm 13:55 Sunny 70 21 45 7 40 40 VRB 7 11 30.15 1021 10 16 0.00 0.00
2:15 pm 14:15 Sunny 70 21 45 7 40 40 NNW 8 13 30.14 1021 10 16 0.00 0.00
2:35 pm 14:35 Sunny 70 21 45 7 40 40 N 8 13 30.13 1020 9 14 0.00 0.00
2:55 pm 14:55 Sunny 70 21 45 7 40 40 VRB 6 9 30.12 1020 10 16 0.00 0.00
3:15 pm 15:15 Sunny 72 22 45 7 38 38 VRB 7 11 30.10 1019 10 16 0.00 0.00
3:35 pm 15:35 Sunny 72 22 45 7 38 38 VRB 5 7 30.10 1019 10 16 0.00 0.00
3:55 pm 15:55 Sunny 72 22 45 7 38 38 NNE 8 13 30.09 1019 10 16 0.00 0.00
4:15 pm 16:15 Sunny 72 22 45 7 38 38 NNE 9 15 30.09 1019 10 16 0.00 0.00
4:35 pm 16:35 Sunny 72 22 45 7 38 38 N 8 13 30.08 1019 10 16 0.00 0.00
4:55 pm 16:55 Sunny 72 22 45 7 38 38 VRB 5 7 30.08 1019 10 16 0.00 0.00
5:15 pm 17:15 Sunny 72 22 45 7 38 38 Calm 30.08 1019 10 16 0.00 0.00
5:35 pm 17:35 Sunny 72 22 45 7 38 38 VRB 7 11 30.07 1018 10 16 0.00 0.00
5:55 pm 17:55 Sunny 72 22 45 7 38 38 NNE 12 19 30.07 1018 10 16 0.00 0.00
6:15 pm 18:15 Sunny 72 22 45 7 38 38 N 7 11 30.07 1018 10 16 0.00 0.00
6:35 pm 18:35 Sunny 70 21 45 7 40 40 VRB 5 7 30.07 1018 10 16 0.00 0.00
6:55 pm 18:55 Sunny 70 21 46 8 43 43 N 7 11 30.08 1019 10 16 0.00 0.00
7:15 pm 19:15 Sunny 68 20 46 8 46 46 VRB 3 6 30.08 1019 10 16 0.00 0.00
7:35 pm 19:35 Clear 66 19 48 9 52 52 Calm 30.07 1018 10 16 0.00 0.00
7:55 pm 19:55 Clear 64 18 48 9 56 56 Calm 30.08 1018 10 16 0.00 0.00
8:15 pm 20:15 Clear 64 18 48 9 56 56 Calm 30.08 1018 10 16 0.00 0.00
8:35 pm 20:35 Clear 63 17 48 9 59 59 Calm 30.09 1019 10 16 0.00 0.00
8:55 pm 20:55 Clear 61 16 48 9 63 63 Calm 30.09 1019 10 16 0.00 0.00
9:15 pm 21:15 Clear 59 15 48 9 67 67 Calm 30.11 1019 10 16 0.00 0.00
9:35 pm 21:35 Clear 57 14 48 9 72 72 Calm 30.11 1020 10 16 0.00 0.00
9:55 pm 21:55 Clear 57 14 50 10 77 77 Calm 30.11 1020 10 16 0.00 0.00
10:15 pm 22:15 Clear 55 13 50 10 82 82 Calm 30.11 1020 10 16 0.00 0.00
10:35 pm 22:35 Clear 55 13 48 9 77 77 Calm 30.11 1020 10 16 0.00 0.00
10:55 pm 22:55 Clear 55 13 48 9 77 77 Calm 30.11 1020 10 16 0.00 0.00
11:15 pm 23:15 Clear 57 14 46 8 67 67 Calm 30.10 1019 10 16 0.00 0.00
11:35 pm 23:35 Clear 57 14 46 8 67 67 Calm 30.10 1019 10 16 0.00 0.00
11:55 pm 23:55 Clear 54 12 46 8 76 76 Calm 30.09 1019 10 16 0.00 0.00

Powered by AerisWeather